Regional Weather Roundup
Issued by NWS

Home | Current Version | Previous Version | Graphics & Text | Print | Product List | Glossary On
Versions: 1 2 3 4 5 6 7 8 9 10 11 12 13 14 15 16 17 18 19 20 21 22 23 24 25 26 27
000
ASUS45 KSLC 190410
RWRUT

UTAH REGIONAL WEATHER ROUNDUP
NATIONAL WEATHER SERVICE SALT LAKE CITY UT
900 PM MST WED JAN 18 2017

UTZ001>011-023>025-190500-

NORTHERN UTAH

CITY           SKY/WX    TMP DP  RH WIND       PRES   REMARKS
BRIGHAM CITY     N/A     23  18  82 CALM      29.93S
HILL AFB       MOCLDY    23  16  75 E7        29.88F WCI  14
LOGAN          CLOUDY    14  10  84 NW6       29.92F FOG     WCI   5
OGDEN          CLOUDY    22  18  85 CALM      29.89F FOG
SALT LAKE CITY CLOUDY    25  21  85 CALM      29.91F FOG
TOOELE VALLEY  CLOUDY    27  23  86 CALM      29.91F FOG
WENDOVER       CLOUDY    25  19  80 CALM      29.92S
HEBER CITY     PTCLDY     7   1  78 CALM      29.90F
WEST JORDAN    CLOUDY    24  24 100 CALM      29.89F

$$

UTZ011>015-024>027-190500-

CENTRAL/NORTHEAST UTAH

CITY           SKY/WX    TMP DP  RH WIND       PRES   REMARKS
PROVO AIRPORT  MOCLDY    24  21  88 CALM      29.92F FOG
MOAB/CANYONLAN CLEAR     30  26  85 CALM      29.98S
DELTA          PTCLDY    32  27  80 S9        29.89F WCI  24
PRICE          PTCLDY    18  11  74 N12       29.97F WCI   5
RICHFIELD      CLEAR     27  25  93 CALM      29.93F
ROOSEVELT      CLOUDY     5   1  85 W3        30.08F
VERNAL         CLOUDY     6   2  83 W6        30.05S WCI  -4

$$

UTZ013>016-019>022-027-190500-

SOUTHERN UTAH

CITY           SKY/WX    TMP DP  RH WIND       PRES   REMARKS
BRYCE CANYON   PTCLDY     3  -2  79 SW5       29.98F WCI  -6
CEDAR CITY     MOCLDY    39  16  39 SW12      29.92F WCI  32
MILFORD        MOCLDY    36  23  59 S12       29.92F WCI  28
ST GEORGE      PTCLDY    43  30  61 CALM      30.00F
HANKSVILLE     PTCLDY    32  27  80 MISG      30.01F
KANAB          CLEAR     28  27  93 CALM      30.04F
BLANDING       CLEAR     29  26  88 NE6       30.06S WCI  23

$$

REGIONAL REPORTS     COLORADO/ARIZONA

CITY           SKY/WX    TMP DP  RH WIND       PRES   REMARKS
CRAIG, CO      CLOUDY     7   3  84 CALM      30.00R
GRAND JUNCTION CLOUDY    30  28  92 CALM      29.99F
RIFLE, CO      CLOUDY    28  24  85 S3        30.00R
MONTROSE, CO   CLOUDY    30  25  81 SE6       30.02R WCI  24
CORTEZ, CO     CLEAR     27  25  92 NE7       30.02S WCI  19
COLORADO CITY    N/A     30  28  93 MISG      30.03S
PAGE, AZ       CLEAR     39  28  64 CALM      29.97F
GRAND CANYON   CLEAR     27  22  81 SW5       30.06R WCI  22
KINGMAN, AZ    PTCLDY    43  26  51 SW8       30.03S
FLAGSTAFF, AZ  PTCLDY    32  29  88 W6        30.07R WCI  26

$$

REGIONAL REPORTS    NEVADA/IDAHO/WYOMING

CITY           SKY/WX    TMP DP  RH WIND       PRES   REMARKS
LAS VEGAS, NV  CLOUDY    54  23  30 E3        29.93F
ELY, NY        CLOUDY    33  20  58 S14       29.86F WCI  23
ELKO, NV       CLOUDY    27  18  69 E5        29.81S WCI  22
POCATELLO, ID  CLOUDY    23  17  78 CALM      29.83F
BURLEY, ID     FRZ RAIN  32  27  81 E8        29.77F WCI  25
FORT BRIDGER,    N/A     16   8  71 S7        29.90S WCI   6
EVANSTON, WY   CLOUDY    23   8  52 S6        29.86F WCI  16
ROCK SPRINGS,  CLOUDY     9   3  77 CALM      29.88F

$$




USA.gov is the U.S. government's official web portal to all federal, state and local government web resources and services.